Probability
0 1 2 2 1 1 1 1 3 6 9 12 15 19 21 22 24 28 33 39 43 40 35 34 33 32 31 31 29 28 29 27 25 23 24 24 24 24 23 22 19 15 13 12
1 0 1 1 2 2 3 4 5 8 11 13 16 21 23 24 26 30 34 39 43 41 37 34 33 32 32 30 28 27 26 25 23 21 22 22 22 22 21 20 16 12 10 11
1 0 0 1 1 3 6 7 8 10 12 13 18 24 27 28 30 33 36 39 42 41 39 36 35 34 33 31 28 27 25 24 22 20 20 20 20 19 18 16 10 7 7 8
1 0 0 0 1 4 8 9 10 12 14 16 21 28 32 31 33 35 37 40 41 41 40 37 36 37 35 32 28 27 26 24 22 20 19 19 18 18 16 12 6 4 5 5
0 0 0 0 2 5 9 10 11 14 18 21 25 29 30 30 31 34 37 41 43 43 40 37 36 35 34 32 30 29 27 24 21 20 20 19 17 16 13 9 5 4 3 4
0 0 1 3 6 8 10 11 12 15 21 24 25 25 25 27 30 34 37 40 43 42 39 37 34 31 29 31 32 32 30 27 23 21 19 18 16 14 11 7 5 4 4 4
0 1 2 6 10 11 10 11 13 16 21 22 22 22 24 28 33 35 38 40 40 37 35 33 31 28 27 28 30 31 30 26 23 20 18 16 14 13 10 7 5 4 4 5
2 2 4 8 11 11 11 13 15 17 21 23 25 26 28 31 34 36 37 38 36 34 32 29 26 26 26 27 28 29 26 22 19 18 16 14 12 11 9 7 5 4 3 4
8 9 11 13 14 13 13 16 18 20 24 28 31 30 29 30 32 34 34 33 31 30 29 24 21 21 22 24 25 25 21 18 17 16 14 12 10 10 8 6 4 3 3 2
18 18 19 20 18 17 18 20 22 25 29 32 33 31 29 30 31 31 30 28 27 26 24 19 17 17 18 20 20 17 14 13 14 14 13 12 11 10 9 6 4 3 3 3
19 19 20 19 19 19 21 23 26 29 32 33 33 30 30 32 32 29 27 25 25 24 19 15 15 16 15 15 14 11 8 9 11 12 13 13 12 10 8 6 4 3 2 2
14 14 14 14 16 19 21 24 27 31 31 31 31 31 31 33 32 27 23 22 23 21 16 13 14 15 13 12 10 8 6 7 8 10 12 13 12 9 6 4 2 1 1 1
10 10 10 11 14 17 19 23 27 29 29 28 28 29 29 30 28 23 20 19 18 17 14 12 13 13 12 10 7 5 5 6 6 8 11 12 11 9 6 2 0 0 0 0
8 8 9 10 13 15 17 21 24 26 24 23 23 24 25 25 22 19 17 16 15 13 11 10 10 10 9 7 4 3 3 5 6 7 9 11 11 11 8 5 2 1 0 0
8 8 8 10 12 13 14 17 20 21 20 19 18 19 20 20 17 15 14 14 13 11 9 9 8 7 6 4 3 2 3 6 7 7 7 9 11 12 10 7 4 3 1 0
8 7 8 10 11 12 12 14 17 18 18 16 13 13 15 15 14 13 12 11 10 9 8 8 6 4 3 2 2 2 3 5 6 6 6 7 9 10 9 7 5 4 2 1
7 7 8 10 11 10 11 13 15 15 14 12 10 10 10 10 9 10 9 7 6 6 6 6 4 2 1 1 1 1 1 2 3 4 4 5 6 7 6 5 4 3 2 1
4 5 7 9 9 8 9 11 13 13 12 10 8 7 5 4 4 4 4 4 4 4 4 4 3 1 0 0 0 0 0 0 1 3 3 4 5 5 4 2 1 1 1 0
3 4 6 7 7 7 8 10 11 11 10 8 6 4 2 1 1 1 1 2 2 2 3 3 3 2 1 0 0 0 0 0 1 2 3 3 4 4 3 2 1 1 0 0
2 3 4 6 6 7 8 9 9 8 7 5 4 2 1 0 0 0 0 1 1 1 1 2 3 3 2 1 0 1 2 1 0 1 2 3 3 3 3 3 2 2 1 0
1 1 2 3 4 6 7 7 8 6 5 3 2 1 0 0 0 0 0 0 0 0 0 1 2 3 3 2 1 2 3 2 1 1 2 2 3 3 3 3 3 3 2 1
0 0 1 1 2 4 5 6 7 6 5 3 1 0 0 0 0 0 0 0 0 0 0 0 1 1 2 1 2 2 3 3 3 2 2 1 1 2 3 3 3 3 2 1
1 1 1 1 0 2 3 5 6 6 5 3 1 0 0 0 0 0 0 0 0 0 0 0 0 0 0 0 1 1 2 2 2 2 2 1 0 1 3 3 3 3 1 0
2 2 2 1 0 1 3 4 4 4 3 2 1 0 0 0 0 0 0 0 0 0 0 0 0 0 0 0 0 0 1 1 1 1 1 0 0 1 2 3 3 3 1 0
1 2 2 1 1 3 4 4 3 2 1 0 0 0 0 0 0 0 0 0 0 0 0 0 0 0 0 0 0 0 0 0 0 0 0 0 0 1 2 3 3 3 2 1
0 1 1 1 1 2 3 3 2 1 0 0 0 0 0 0 0 0 0 0 0 0 0 0 0 0 0 0 0 0 0 0 0 0 0 0 0 0 1 2 3 3 2 1
0 0 0 0 1 1 1 1 1 0 0 0 0 0 0 0 0 0 0 0 0 0 0 0 0 0 0 0 0 0 0 0 0 0 0 0 0 0 0 1 3 3 2 1
Wind_Speed
3 3 1 0 2 2 4 7 7 7 7 8 9 10 10 10 10 10 9 9 10 9 8 8 8 7 7 7 6 7 7 6 5 5 5 4 4 4 4 4 4 3 3 3
1 2 2 2 2 2 3 4 4 6 4 5 6 7 7 9 12 11 10 10 10 9 9 8 8 8 7 7 6 7 7 5 5 5 5 4 4 4 4 4 3 4 3 3
1 2 4 3 4 3 2 2 6 6 6 6 7 8 10 11 11 11 11 9 10 9 8 8 8 8 8 7 7 7 7 5 5 5 5 4 5 4 4 3 3 3 3 3
2 3 2 8 4 3 3 1 3 5 6 8 9 8 6 7 10 10 10 9 9 8 7 6 6 7 7 7 7 7 6 6 5 6 5 4 4 4 3 3 3 3 2 2
4 2 4 6 3 1 4 1 1 6 7 8 8 8 3 1 6 8 9 9 8 8 8 7 8 8 9 7 7 7 6 5 5 6 5 5 5 4 3 3 2 2 2 2
4 3 4 6 6 3 5 1 1 6 9 8 7 5 3 2 5 7 8 8 8 8 8 8 7 9 9 7 6 6 5 5 5 5 6 5 5 4 3 3 3 2 2 1
4 3 5 5 6 2 4 7 4 6 8 7 5 6 6 6 6 8 8 8 8 9 8 7 7 9 9 7 6 5 5 5 4 4 5 5 4 3 3 3 3 2 2 1
4 2 6 5 2 2 6 3 3 5 7 8 7 7 7 8 7 8 8 8 8 7 7 6 7 9 8 6 5 5 5 5 4 4 4 4 4 3 4 4 3 2 2 1
5 6 4 2 0 1 2 4 3 5 7 10 9 8 8 8 7 7 8 7 7 8 7 6 6 7 8 5 5 6 5 5 4 4 3 3 4 4 3 3 3 2 2 2
2 1 2 3 4 4 3 2 3 5 7 10 10 9 9 8 7 7 7 6 6 8 7 6 5 5 6 6 6 6 5 4 4 4 3 2 2 2 3 3 3 3 3 2
1 1 5 6 5 4 5 4 5 5 6 8 10 9 9 8 8 7 7 5 6 7 7 6 5 5 5 5 6 6 5 3 3 3 3 3 2 1 2 2 3 4 4 4
3 3 2 2 3 3 5 5 4 5 6 6 9 9 8 8 7 7 6 5 6 6 6 6 5 5 4 5 6 6 4 3 2 2 3 3 3 2 3 1 1 2 3 3
4 3 3 0 3 3 4 4 4 4 5 6 6 7 8 7 6 7 6 6 6 7 6 6 5 5 4 4 5 5 4 4 3 3 3 3 3 3 1 1 1 1 1 3
2 4 3 2 2 3 4 5 5 6 6 5 5 6 7 7 7 7 6 6 6 6 6 5 5 4 4 4 4 4 4 4 4 3 3 3 3 3 3 3 2 1 1 2
2 3 3 2 3 3 4 5 6 6 5 5 5 5 6 7 7 6 5 5 6 6 5 5 4 3 3 4 4 4 3 3 3 3 3 2 2 2 2 3 3 2 1 1
2 3 3 4 3 3 3 4 4 3 4 4 4 5 4 5 5 6 5 6 7 6 5 5 4 3 3 4 4 3 2 4 3 2 2 2 2 2 2 2 2 2 3 2
4 1 1 2 2 2 2 3 3 3 4 5 5 5 5 5 5 4 4 4 4 5 5 5 4 4 4 4 4 3 2 2 3 2 2 3 3 3 3 3 3 3 3 4
4 3 2 2 3 3 3 2 3 3 4 5 5 6 5 5 5 4 3 4 4 3 2 3 3 3 3 3 3 3 2 2 2 2 2 2 3 3 3 3 3 4 3 3
4 4 4 3 3 3 3 2 2 3 4 5 5 5 4 3 3 3 3 4 4 3 2 2 4 4 3 3 3 2 2 2 2 2 2 3 3 2 3 3 3 3 3 2
3 3 4 3 3 4 3 2 3 3 3 4 5 4 3 2 2 3 3 3 3 3 3 3 3 3 2 3 3 2 2 2 2 2 2 2 2 2 3 3 3 3 3 3
3 4 4 3 3 3 2 3 3 3 2 3 4 4 3 2 2 3 3 2 2 2 3 3 3 2 2 3 3 2 2 2 2 2 2 2 2 2 2 3 3 3 3 3
3 4 3 3 3 3 2 2 2 2 2 1 2 2 2 2 2 1 2 3 3 3 2 2 2 2 3 2 2 2 2 2 2 2 2 3 3 3 3 3 3 2 2 2
2 2 2 2 2 1 2 2 1 1 1 1 2 2 3 3 3 3 2 2 2 3 2 2 3 4 4 2 2 2 2 2 2 2 2 2 3 3 3 3 3 2 2 2
1 1 1 1 2 2 1 1 0 0 0 1 1 2 2 2 2 2 3 3 4 4 3 4 5 5 4 2 2 2 2 2 2 2 2 2 2 2 2 3 3 3 3 3
1 1 1 1 1 0 1 1 0 1 1 1 1 2 2 2 2 2 2 3 5 4 3 4 6 6 4 2 3 3 3 3 3 2 2 2 2 2 2 2 2 3 2 2
0 0 0 1 1 1 1 0 1 1 1 1 1 2 2 2 2 2 2 3 4 4 3 3 4 4 3 3 3 3 3 3 3 3 3 3 3 2 2 2 3 2 2 2
1 0 1 1 1 1 0 1 1 2 2 2 3 3 2 2 2 2 3 3 3 3 3 3 3 3 3 3 3 3 3 3 3 3 3 2 2 3 3 4 3 3 3 3
Wind_Direction
201 226 145 176 261 212 169 174 174 202 189 198 188 175 170 155 148 149 149 146 143 143 144 140 137 139 140 137 136 135 134 136 142 136 124 116 113 113 111 111 117 118 106 95
353 360 30 341 310 241 197 166 159 150 200 210 176 154 158 159 155 157 159 152 147 143 144 143 142 139 133 133 135 131 132 136 139 132 125 122 118 114 115 112 109 104 103 102
265 344 34 313 257 208 187 190 155 169 196 155 140 156 170 170 164 162 161 155 151 149 150 148 145 141 139 139 132 129 134 140 137 131 129 132 128 117 121 120 115 115 113 108
111 65 211 248 246 179 154 194 155 148 153 147 153 160 166 160 154 154 153 155 153 149 142 139 133 127 127 127 127 133 140 144 146 141 138 132 127 132 130 123 123 127 125 124
115 142 270 296 308 204 144 317 135 135 129 122 119 94 65 149 147 150 150 148 145 141 134 130 129 127 120 120 127 134 143 150 151 147 140 134 137 147 146 136 131 132 133 131
119 142 220 255 282 279 103 329 263 139 140 139 118 123 201 178 133 123 121 124 127 125 122 127 133 130 122 124 131 144 151 149 146 145 146 151 156 156 149 141 140 135 123 132
135 175 252 263 293 23 130 215 216 156 147 144 150 169 162 135 122 118 116 120 122 123 124 132 135 130 128 131 143 153 145 134 133 142 147 151 149 144 138 132 125 119 119 97
138 162 252 300 358 159 202 188 145 144 143 136 129 119 118 121 119 119 118 117 118 120 120 123 127 128 129 137 143 136 134 132 135 140 144 139 137 138 140 141 140 138 124 104
171 199 240 308 269 225 143 120 125 132 136 137 132 129 127 129 131 128 125 120 119 123 119 117 125 128 130 140 134 125 126 135 136 130 127 135 143 149 149 154 161 166 160 170
79 337 350 10 29 22 43 92 124 127 132 138 136 138 136 136 136 134 128 130 129 127 128 130 133 129 133 138 133 127 129 139 146 140 137 133 134 149 155 167 177 182 182 190
95 345 10 14 15 9 27 58 90 104 120 135 135 137 138 140 142 142 137 141 138 138 142 144 139 131 132 133 131 132 136 141 145 145 144 138 134 148 172 193 194 188 192 187
203 210 153 282 319 12 53 54 83 102 98 118 133 141 139 138 139 137 138 142 141 143 144 144 141 138 137 137 135 137 143 153 159 163 153 144 135 95 42 101 113 165 186 179
183 163 145 187 359 26 63 66 69 84 108 119 126 130 133 133 131 130 137 148 150 149 144 140 142 147 152 149 144 146 160 169 164 161 159 158 158 155 156 33 50 69 187 187
122 99 74 42 18 15 53 60 60 58 64 87 108 118 120 120 124 129 145 153 145 138 138 141 147 162 170 156 149 153 161 171 169 170 170 173 177 181 175 169 179 263 277 213
59 113 140 113 61 41 57 70 70 69 72 80 99 112 123 129 136 142 146 141 134 136 145 149 155 171 171 161 158 163 167 175 172 169 169 173 178 171 159 166 178 195 203 256
114 93 97 91 81 69 80 90 97 104 110 108 113 116 122 127 131 135 138 139 144 155 160 157 165 179 175 165 155 160 181 188 175 169 173 170 165 164 167 172 187 196 203 203
121 117 106 109 116 99 100 121 129 136 124 116 121 116 110 109 108 110 119 129 137 150 158 164 174 175 166 161 153 156 164 179 169 157 168 175 172 175 175 178 195 202 217 210
132 143 139 147 124 95 73 72 100 118 122 121 116 112 119 128 134 133 137 127 119 123 149 167 166 156 156 158 157 158 159 173 178 172 172 173 177 176 174 187 200 202 220 212
82 97 95 91 102 104 95 86 99 112 118 122 122 129 134 132 134 137 135 129 134 151 202 184 157 149 162 173 160 161 167 168 167 171 171 176 173 173 180 195 209 207 203 195
68 83 85 77 75 91 97 93 98 101 105 119 120 118 118 130 146 146 140 153 188 195 194 180 162 163 180 183 165 164 170 171 172 177 178 185 190 197 200 204 209 210 206 203
71 73 79 76 69 78 97 113 114 108 103 118 131 143 153 168 169 163 159 189 242 199 177 176 172 183 195 191 176 172 175 178 182 190 191 196 203 207 206 207 210 214 211 206
70 76 75 84 85 69 66 94 113 120 118 114 132 149 152 171 183 185 198 205 209 185 174 178 185 191 194 193 189 189 193 195 197 198 199 200 196 190 195 202 209 215 212 207
77 86 86 81 93 86 63 69 91 114 142 186 185 183 188 201 195 188 222 235 195 186 185 195 198 190 195 198 199 196 197 200 203 206 208 205 195 189 193 203 209 211 211 217
76 69 70 75 87 87 56 300 284 205 221 260 232 212 200 200 232 229 216 205 198 197 199 203 201 199 195 196 196 199 202 207 209 210 209 201 197 198 201 203 211 218 216 211
96 73 51 61 65 197 227 244 39 42 1 316 289 270 244 206 209 228 220 205 201 202 210 209 205 206 203 202 205 208 210 213 212 197 194 200 210 207 207 211 210 208 203 199
106 183 275 246 221 214 202 166 184 218 215 229 258 261 255 242 218 215 220 219 210 208 210 210 212 213 212 212 211 212 214 213 207 202 202 202 200 196 193 196 198 197 198 199
351 355 3 347 331 312 229 203 206 229 224 216 236 253 255 248 233 222 214 213 211 212 216 217 215 210 208 208 210 210 210 208 206 196 193 198 199 201 202 201 195 188 187 186